AirNav   TITAN Aviation Fuels
 
 1343 users online  

02LA Louisiana State Police Troop G Heliport
Bossier City, Louisiana, USA

GOING TO BOSSIER CITY?


FAA INFORMATION EFFECTIVE 08 SEPTEMBER 2022

Location

FAA Identifier: 02LA
Lat/Long: 32-31-53.3400N 093-39-35.7000W
32-31.889000N 093-39.595000W
32.5314833,-93.6599167
(estimated)
Elevation: 168 ft. / 51 m (estimated)
Variation: 05E (1985)
From city: 3 miles E of BOSSIER CITY, LA
Time zone: UTC -5 (UTC -6 during Standard Time)
Zip code: 71112

Heliport Operations

Heliport use: Private use. Permission required prior to landing
Control tower: no
ARTCC: FORT WORTH CENTER
FSS: DE RIDDER FLIGHT SERVICE STATION
Attendance: UNATNDD
Wind indicator: yes
Segmented circle: no

Heliport Communications

WX ASOS at DTN (4 nm W): 118.525 (318-425-7967)
WX ASOS at SHV (10 nm SW): 128.45 (318-636-5767)
WX AWOS-3PT at MNE (20 nm E): 119.325 (318-371-7874)

Nearby radio navigation aids

VOR radial/distance  VOR name  Freq  Var
EMGr330/8.5ELM GROVE VORTAC111.2007E
EICr145/16.3BELCHER VORTAC117.4007E

 
NDB name  Hdg/Dist  Freq  Var  ID
CARTHAGE053/38.533204ERPF .-. .--. ..-.

Heliport Services

Runway Information

Helipad H1

Dimensions: 20 x 20 ft. / 6 x 6 m
Surface: concrete
Latitude: 32-31.875667N
Longitude: 093-39.610667W
Traffic pattern: leftleft

Heliport Ownership and Management from official FAA records

Ownership: Publicly-owned
Owner: LA STATE POLICE
7919 INDEPENDENCE BLVD C-8
BATON ROUGE, LA 70806
Phone 225-922-0380
Manager: STEVEN M. LEE
7919 INDEPENDENCE BLVD C-8
BATON ROUGE, LA 70806
Phone (318) 613-0585
.

Additional Remarks

FOR CD CTC FORT WORTH ARTCC AT 817-858-7584.

Instrument Procedures

There are no published instrument procedures at 02LA.

Some nearby airports with instrument procedures:

KBAD - Barksdale Air Force Base (2 nm S)
KDTN - Shreveport Downtown Airport (4 nm W)
KSHV - Shreveport Regional Airport (10 nm SW)
KMNE - Minden Airport (20 nm E)
3F4 - Vivian Airport (27 nm NW)
 
Loc | Ops | Rwys | IFR | FBO | Links
Com | Nav | Svcs | Stats | Notes
Area around 02LA (Louisiana State Police Troop G Heliport)
 
Road maps at: MapQuest Bing Google
 
Aerial photo
No photo
 
Sectional chart

 
Airport distance calculator
Flying to Louisiana State Police Troop G Heliport? Find the distance to fly.

From to 02LA

Sunrise and sunset
Times for 28-Sep-2022
 Local
(UTC-5)
 Zulu
(UTC)
Morning civil twilight06:4311:43
Sunrise07:0812:08
Sunset19:0300:03
Evening civil twilight19:2700:27

Current date and time
Zulu (UTC)  29-Sep-2022 01:28:56
Local (UTC-5)  28-Sep-2022 20:28:56
 
METAR
KBAD 
2nm S 
290055Z AUTO 00000KT 10SM CLR 22/12 A3019 RMK AO2 SLP227 T02190116
KDTN 
5nm W 
290053Z 00000KT 10SM CLR 23/12 A3020 RMK AO2 SLP224 T02280122
KSHV 
10nm SW 
290056Z 07005KT 10SM CLR 23/11 A3019 RMK AO2 SLP221 T02330106
KMNE 
20nm E 
290115Z AUTO 00000KT 10SM CLR 20/14 A3022 RMK AO2 T02000143
TAF
KBAD 
2nm S 
282000Z 2820/3002 06012KT 9999 SKC QNH3020INS BECMG 2901/2902 00000KT 9999 SKC QNH3020INS BECMG 2916/2917 06010G15KT 9999 SKC QNH3013INS BECMG 3000/3001 00000KT 9999 SKC QNH3013INS TX29/2821Z TN12/2912Z
KSHV 
10nm SW 
281721Z 2818/2918 07004KT P6SM SKC FM282000 03008KT P6SM SKC FM290200 06004KT P6SM SKC FM291400 05011KT P6SM SKC
NOTAMs
Click for the latest NOTAMs
NOTAMs are issued by the DoD/FAA and will open in a separate window not controlled by AirNav.

 

 
 

Would you like to see your business listed on this page?

 If your business provides an interesting product or service to pilots, flight crews, aircraft, or users of the Louisiana State Police Troop G Heliport, you should consider listing it here.  To start the listing process, click on the button below
 
Add a business
 

Other Pages about Louisiana State Police Troop G Heliport

Update a link
 
Copyright © AirNav, LLC. All rights reserved. Privacy Policy  Contact